Torna al catalogo

STARLINK-34900

AttivoComunicazioniVLEO
NORAD 65374·PAYLOAD·🇺🇸 United States

Lanciato Aug 28, 2025 da Cape Canaveral Space Force Station

Loading…

Prossimi Passaggi (prossime 24 ore)

TLE

AggiornatoSource: CelesTrak SupGP

Epoca: Sep 14, 2026, 21:17 UTC

1 65374C 25190Z   26257.88729167  .00009694  00000+0  28651-3 0  2571
2 65374  53.1603   8.2042 0001145  78.9746 102.6138 15.34374568    11

Traccia STARLINK-34900 in tempo reale con AllMySat

Download on the App Store